Time,TemperatureF,DewpointF,PressureIn,WindDirection,WindDirectionDegrees,WindSpeedMPH,WindSpeedGustMPH,Humidity,HourlyPrecipIn,Conditions,Clouds,dailyrainin,SoftwareType,DateUTC
2013-01-09 00:00:00,39.6,36.9,30.43,SW,225,0.0,0.0,90,0.00,,---,0.00,VWS V14.01,2013-01-09 05:00:00,
2013-01-09 00:04:00,39.6,36.9,30.43,SW,225,0.0,0.0,90,0.00,,---,0.00,VWS V14.01,2013-01-09 05:04:00,
2013-01-09 00:05:00,39.6,36.9,30.43,SW,225,0.0,0.0,90,0.00,,---,0.00,VWS V14.01,2013-01-09 05:05:00,
2013-01-09 00:09:00,39.5,36.8,30.43,SW,225,0.0,0.0,90,0.00,,---,0.00,VWS V14.01,2013-01-09 05:09:00,
2013-01-09 00:10:00,39.5,36.8,30.43,SW,225,0.0,0.0,90,0.00,,---,0.00,VWS V14.01,2013-01-09 05:10:00,
2013-01-09 00:14:00,39.3,36.6,30.43,SW,225,0.0,0.0,90,0.00,,---,0.00,VWS V14.01,2013-01-09 05:14:00,
2013-01-09 00:15:00,39.3,36.6,30.43,SW,225,0.0,0.0,90,0.00,,---,0.00,VWS V14.01,2013-01-09 05:15:00,
2013-01-09 00:20:00,39.3,36.6,30.43,SW,225,0.0,0.0,90,0.00,,---,0.00,VWS V14.01,2013-01-09 05:20:00,
2013-01-09 00:25:00,39.2,36.5,30.43,SW,225,0.0,0.0,90,0.00,,---,0.00,VWS V14.01,2013-01-09 05:25:00,
2013-01-09 00:29:00,39.2,36.8,30.42,SW,225,0.0,0.0,91,0.00,,---,0.00,VWS V14.01,2013-01-09 05:29:00,
2013-01-09 00:30:00,39.2,36.8,30.42,SW,225,0.0,0.0,91,0.00,,---,0.00,VWS V14.01,2013-01-09 05:30:00,
2013-01-09 00:35:00,39.3,36.9,30.42,SW,225,0.0,0.0,91,0.00,,---,0.00,VWS V14.01,2013-01-09 05:35:00,
2013-01-09 00:40:00,39.3,36.9,30.42,SW,225,0.0,0.0,91,0.00,,---,0.00,VWS V14.01,2013-01-09 05:40:00,
2013-01-09 00:45:00,39.3,36.9,30.42,SW,225,0.0,0.0,91,0.00,,---,0.00,VWS V14.01,2013-01-09 05:45:00,
2013-01-09 00:49:00,39.3,36.9,30.42,SW,225,0.0,0.0,91,0.00,,---,0.00,VWS V14.01,2013-01-09 05:49:00,
2013-01-09 00:50:00,39.3,36.9,30.42,SW,225,0.0,0.0,91,0.00,,---,0.00,VWS V14.01,2013-01-09 05:50:00,
2013-01-09 00:54:00,39.3,36.9,30.41,SW,225,0.0,0.0,91,0.00,,---,0.00,VWS V14.01,2013-01-09 05:54:00,
2013-01-09 00:55:00,39.3,36.9,30.41,SW,225,0.0,0.0,91,0.00,,---,0.00,VWS V14.01,2013-01-09 05:55:00,
2013-01-09 01:00:00,39.3,36.9,30.41,SW,225,0.0,0.0,91,0.00,,---,0.00,VWS V14.01,2013-01-09 06:00:00,
2013-01-09 01:05:00,39.4,37.0,30.41,SW,225,0.0,0.0,91,0.00,,---,0.00,VWS V14.01,2013-01-09 06:05:00,
2013-01-09 01:09:00,39.4,37.0,30.41,SW,225,0.0,0.0,91,0.00,,---,0.00,VWS V14.01,2013-01-09 06:09:00,
2013-01-09 01:10:00,39.4,37.0,30.41,SW,225,0.0,0.0,91,0.00,,---,0.00,VWS V14.01,2013-01-09 06:10:00,
2013-01-09 01:14:00,39.5,37.1,30.41,SW,225,0.0,0.0,91,0.00,,---,0.00,VWS V14.01,2013-01-09 06:14:00,
2013-01-09 01:15:00,39.5,37.1,30.41,SW,225,0.0,0.0,91,0.00,,---,0.00,VWS V14.01,2013-01-09 06:15:00,
2013-01-09 01:20:00,39.6,37.2,30.40,SW,225,0.0,0.0,91,0.00,,---,0.00,VWS V14.01,2013-01-09 06:20:00,
2013-01-09 01:25:00,39.7,37.3,30.41,SW,225,0.0,0.0,91,0.00,,---,0.00,VWS V14.01,2013-01-09 06:25:00,
2013-01-09 01:29:00,39.8,37.4,30.41,SW,225,0.0,0.0,91,0.00,,---,0.00,VWS V14.01,2013-01-09 06:29:00,
2013-01-09 01:30:00,39.8,37.4,30.41,SW,225,0.0,0.0,91,0.00,,---,0.00,VWS V14.01,2013-01-09 06:30:00,
2013-01-09 01:34:00,40.1,38.0,30.41,SW,225,0.0,0.0,92,0.00,,---,0.00,VWS V14.01,2013-01-09 06:34:00,
2013-01-09 01:35:00,40.1,38.0,30.41,SW,225,0.0,0.0,92,0.00,,---,0.00,VWS V14.01,2013-01-09 06:35:00,
2013-01-09 01:39:00,40.2,37.8,30.41,SW,225,0.0,0.0,91,0.00,,---,0.00,VWS V14.01,2013-01-09 06:39:00,
2013-01-09 01:40:00,40.2,37.8,30.41,SW,225,0.0,0.0,91,0.00,,---,0.00,VWS V14.01,2013-01-09 06:40:00,
2013-01-09 01:45:00,40.3,37.9,30.41,SW,225,0.0,0.0,91,0.00,,---,0.00,VWS V14.01,2013-01-09 06:45:00,
2013-01-09 01:50:00,40.6,38.5,30.41,SW,225,0.0,0.0,92,0.00,,---,0.00,VWS V14.01,2013-01-09 06:50:00,
2013-01-09 01:55:00,41.1,39.0,30.42,SW,225,0.0,1.0,92,0.00,,---,0.00,VWS V14.01,2013-01-09 06:55:00,
2013-01-09 02:00:00,41.3,38.9,30.42,SW,225,0.0,0.0,91,0.00,,---,0.00,VWS V14.01,2013-01-09 07:00:00,
2013-01-09 02:05:00,41.4,39.0,30.41,SW,225,0.0,0.0,91,0.00,,---,0.00,VWS V14.01,2013-01-09 07:05:00,
2013-01-09 02:09:00,41.6,39.2,30.41,SW,225,0.0,0.0,91,0.00,,---,0.00,VWS V14.01,2013-01-09 07:09:00,
2013-01-09 02:10:00,41.6,39.2,30.41,SW,225,0.0,0.0,91,0.00,,---,0.00,VWS V14.01,2013-01-09 07:10:00,
2013-01-09 02:14:00,41.8,39.1,30.42,West,278,2.0,5.0,90,0.00,,---,0.00,VWS V14.01,2013-01-09 07:14:00,
2013-01-09 02:15:00,41.8,39.1,30.42,West,278,2.0,5.0,90,0.00,,---,0.00,VWS V14.01,2013-01-09 07:15:00,
2013-01-09 02:19:00,41.4,38.4,30.42,West,278,0.0,3.0,89,0.00,,---,0.00,VWS V14.01,2013-01-09 07:19:00,
2013-01-09 02:20:00,41.4,38.4,30.42,West,278,0.0,3.0,89,0.00,,---,0.00,VWS V14.01,2013-01-09 07:20:00,
2013-01-09 02:25:00,41.4,38.7,30.42,West,278,0.0,2.0,90,0.00,,---,0.00,VWS V14.01,2013-01-09 07:25:00,
2013-01-09 02:30:00,41.7,39.0,30.42,West,278,0.0,0.0,90,0.00,,---,0.00,VWS V14.01,2013-01-09 07:30:00,
2013-01-09 02:34:00,42.0,39.3,30.42,West,278,0.0,1.0,90,0.00,,---,0.00,VWS V14.01,2013-01-09 07:34:00,
2013-01-09 02:35:00,42.0,39.3,30.42,West,278,0.0,1.0,90,0.00,,---,0.00,VWS V14.01,2013-01-09 07:35:00,
2013-01-09 02:39:00,42.2,39.2,30.42,West,278,0.0,1.0,89,0.00,,---,0.00,VWS V14.01,2013-01-09 07:39:00,
2013-01-09 02:40:00,42.2,39.2,30.42,West,278,0.0,1.0,89,0.00,,---,0.00,VWS V14.01,2013-01-09 07:40:00,
2013-01-09 02:44:00,42.3,39.0,30.42,West,278,0.0,0.0,88,0.00,,---,0.00,VWS V14.01,2013-01-09 07:44:00,
2013-01-09 02:45:00,42.3,39.0,30.42,West,278,0.0,0.0,88,0.00,,---,0.00,VWS V14.01,2013-01-09 07:45:00,
2013-01-09 02:49:00,42.2,38.9,30.42,West,278,0.0,0.0,88,0.00,,---,0.00,VWS V14.01,2013-01-09 07:49:00,
2013-01-09 02:50:00,42.2,38.9,30.42,West,278,0.0,0.0,88,0.00,,---,0.00,VWS V14.01,2013-01-09 07:50:00,
2013-01-09 02:54:00,42.1,38.8,30.42,West,278,0.0,0.0,88,0.00,,---,0.00,VWS V14.01,2013-01-09 07:54:00,
2013-01-09 02:55:00,42.1,38.8,30.42,West,278,0.0,0.0,88,0.00,,---,0.00,VWS V14.01,2013-01-09 07:55:00,
2013-01-09 03:00:00,42.0,38.7,30.42,West,278,0.0,0.0,88,0.00,,---,0.00,VWS V14.01,2013-01-09 08:00:00,
2013-01-09 03:05:00,41.9,38.6,30.42,West,278,0.0,0.0,88,0.00,,---,0.00,VWS V14.01,2013-01-09 08:05:00,
2013-01-09 03:09:00,41.7,38.4,30.42,West,278,0.0,0.0,88,0.00,,---,0.00,VWS V14.01,2013-01-09 08:09:00,
2013-01-09 03:10:00,41.7,38.4,30.42,West,278,0.0,0.0,88,0.00,,---,0.00,VWS V14.01,2013-01-09 08:10:00,
2013-01-09 03:14:00,41.6,38.6,30.42,West,278,0.0,0.0,89,0.00,,---,0.00,VWS V14.01,2013-01-09 08:14:00,
2013-01-09 03:15:00,41.6,38.6,30.42,West,278,0.0,0.0,89,0.00,,---,0.00,VWS V14.01,2013-01-09 08:15:00,
2013-01-09 03:20:00,41.5,38.2,30.42,West,278,0.0,0.0,88,0.00,,---,0.00,VWS V14.01,2013-01-09 08:20:00,
2013-01-09 03:25:00,41.1,37.8,30.42,West,278,0.0,0.0,88,0.00,,---,0.00,VWS V14.01,2013-01-09 08:25:00,
2013-01-09 03:29:00,40.8,37.8,30.42,West,278,0.0,0.0,89,0.00,,---,0.00,VWS V14.01,2013-01-09 08:29:00,
2013-01-09 03:30:00,40.8,37.8,30.42,West,278,0.0,0.0,89,0.00,,---,0.00,VWS V14.01,2013-01-09 08:30:00,
2013-01-09 03:34:00,40.6,37.6,30.42,West,278,0.0,0.0,89,0.00,,---,0.00,VWS V14.01,2013-01-09 08:34:00,
2013-01-09 03:35:00,40.6,37.6,30.42,West,278,0.0,0.0,89,0.00,,---,0.00,VWS V14.01,2013-01-09 08:35:00,
2013-01-09 03:39:00,40.5,37.8,30.41,West,278,0.0,0.0,90,0.00,,---,0.00,VWS V14.01,2013-01-09 08:39:00,
2013-01-09 03:40:00,40.5,37.8,30.41,West,278,0.0,0.0,90,0.00,,---,0.00,VWS V14.01,2013-01-09 08:40:00,
2013-01-09 03:44:00,40.4,37.7,30.41,West,278,0.0,0.0,90,0.00,,---,0.00,VWS V14.01,2013-01-09 08:44:00,
2013-01-09 03:45:00,40.4,37.7,30.41,West,278,0.0,0.0,90,0.00,,---,0.00,VWS V14.01,2013-01-09 08:45:00,
2013-01-09 03:49:00,40.2,37.5,30.41,West,278,0.0,0.0,90,0.00,,---,0.00,VWS V14.01,2013-01-09 08:49:00,
2013-01-09 03:50:00,40.2,37.5,30.41,West,278,0.0,0.0,90,0.00,,---,0.00,VWS V14.01,2013-01-09 08:50:00,
2013-01-09 03:54:00,40.0,37.0,30.41,West,278,0.0,0.0,89,0.00,,---,0.00,VWS V14.01,2013-01-09 08:54:00,
2013-01-09 03:55:00,40.0,37.0,30.41,West,278,0.0,0.0,89,0.00,,---,0.00,VWS V14.01,2013-01-09 08:55:00,
2013-01-09 04:00:00,39.8,37.1,30.41,West,278,0.0,0.0,90,0.00,,---,0.00,VWS V14.01,2013-01-09 09:00:00,
2013-01-09 04:05:00,39.6,36.9,30.41,West,278,0.0,0.0,90,0.00,,---,0.00,VWS V14.01,2013-01-09 09:05:00,
2013-01-09 04:10:00,39.5,37.1,30.41,West,278,0.0,0.0,91,0.00,,---,0.00,VWS V14.01,2013-01-09 09:10:00,
2013-01-09 04:15:00,39.3,36.9,30.41,West,278,0.0,0.0,91,0.00,,---,0.00,VWS V14.01,2013-01-09 09:15:00,
2013-01-09 04:20:00,39.1,36.7,30.41,West,278,0.0,0.0,91,0.00,,---,0.00,VWS V14.01,2013-01-09 09:20:00,
2013-01-09 04:24:00,38.9,36.5,30.41,West,278,0.0,0.0,91,0.00,,---,0.00,VWS V14.01,2013-01-09 09:24:00,
2013-01-09 04:25:00,38.9,36.5,30.41,West,278,0.0,0.0,91,0.00,,---,0.00,VWS V14.01,2013-01-09 09:25:00,
2013-01-09 04:29:00,38.7,36.3,30.40,West,278,0.0,0.0,91,0.00,,---,0.00,VWS V14.01,2013-01-09 09:29:00,
2013-01-09 04:30:00,36.9,35.1,30.41,West,278,0.0,0.0,93,0.00,,---,0.00,VWS V14.01,2013-01-09 09:30:00,
2013-01-09 04:34:00,38.5,36.1,30.40,West,278,0.0,0.0,91,0.00,,---,0.00,VWS V14.01,2013-01-09 09:34:00,
2013-01-09 04:35:00,38.5,36.1,30.40,West,278,0.0,0.0,91,0.00,,---,0.00,VWS V14.01,2013-01-09 09:35:00,
2013-01-09 04:39:00,38.3,35.9,30.40,West,278,0.0,0.0,91,0.00,,---,0.00,VWS V14.01,2013-01-09 09:39:00,
2013-01-09 04:40:00,38.3,35.9,30.40,West,278,0.0,0.0,91,0.00,,---,0.00,VWS V14.01,2013-01-09 09:40:00,
2013-01-09 04:44:00,38.2,36.1,30.40,West,278,0.0,0.0,92,0.00,,---,0.00,VWS V14.01,2013-01-09 09:44:00,
2013-01-09 04:45:00,38.2,36.1,30.40,West,278,0.0,0.0,92,0.00,,---,0.00,VWS V14.01,2013-01-09 09:45:00,
2013-01-09 04:49:00,37.9,35.5,30.40,West,278,0.0,0.0,91,0.00,,---,0.00,VWS V14.01,2013-01-09 09:49:00,
2013-01-09 04:50:00,37.9,35.5,30.40,West,278,0.0,0.0,91,0.00,,---,0.00,VWS V14.01,2013-01-09 09:50:00,
2013-01-09 04:55:00,37.7,35.6,30.40,West,278,0.0,1.0,92,0.00,,---,0.00,VWS V14.01,2013-01-09 09:55:00,
2013-01-09 04:59:00,37.6,35.5,30.41,West,278,0.0,0.0,92,0.00,,---,0.00,VWS V14.01,2013-01-09 09:59:00,
2013-01-09 05:00:00,37.6,35.5,30.41,West,278,0.0,0.0,92,0.00,,---,0.00,VWS V14.01,2013-01-09 10:00:00,
2013-01-09 05:04:00,37.5,35.7,30.40,West,278,0.0,0.0,93,0.00,,---,0.00,VWS V14.01,2013-01-09 10:04:00,
2013-01-09 05:05:00,37.5,35.7,30.40,West,278,0.0,0.0,93,0.00,,---,0.00,VWS V14.01,2013-01-09 10:05:00,
2013-01-09 05:10:00,37.4,35.6,30.40,West,278,0.0,0.0,93,0.00,,---,0.00,VWS V14.01,2013-01-09 10:10:00,
2013-01-09 05:15:00,37.1,35.0,30.40,West,278,0.0,0.0,92,0.00,,---,0.00,VWS V14.01,2013-01-09 10:15:00,
2013-01-09 05:20:00,37.2,35.4,30.41,West,278,0.0,1.0,93,0.00,,---,0.00,VWS V14.01,2013-01-09 10:20:00,
2013-01-09 05:24:00,37.1,35.3,30.41,West,278,0.0,0.0,93,0.00,,---,0.00,VWS V14.01,2013-01-09 10:24:00,
2013-01-09 05:25:00,37.1,35.3,30.41,West,278,0.0,0.0,93,0.00,,---,0.00,VWS V14.01,2013-01-09 10:25:00,
2013-01-09 05:29:00,36.9,35.1,30.41,West,278,0.0,0.0,93,0.00,,---,0.00,VWS V14.01,2013-01-09 10:29:00,
2013-01-09 05:30:00,36.9,35.1,30.41,West,278,0.0,0.0,93,0.00,,---,0.00,VWS V14.01,2013-01-09 10:30:00,
2013-01-09 05:34:00,36.9,35.1,30.40,West,278,0.0,0.0,93,0.00,,---,0.00,VWS V14.01,2013-01-09 10:34:00,
2013-01-09 05:35:00,36.9,35.1,30.40,West,278,0.0,0.0,93,0.00,,---,0.00,VWS V14.01,2013-01-09 10:35:00,
2013-01-09 05:40:00,36.7,34.9,30.40,West,278,0.0,0.0,93,0.00,,---,0.00,VWS V14.01,2013-01-09 10:40:00,
2013-01-09 05:45:00,36.7,34.9,30.40,West,278,0.0,0.0,93,0.00,,---,0.00,VWS V14.01,2013-01-09 10:45:00,
2013-01-09 05:49:00,36.6,34.8,30.41,West,278,0.0,0.0,93,0.00,,---,0.00,VWS V14.01,2013-01-09 10:49:00,
2013-01-09 05:50:00,36.6,34.8,30.41,West,278,0.0,0.0,93,0.00,,---,0.00,VWS V14.01,2013-01-09 10:50:00,
2013-01-09 05:54:00,36.6,34.8,30.40,West,278,0.0,0.0,93,0.00,,---,0.00,VWS V14.01,2013-01-09 10:54:00,
2013-01-09 05:55:00,36.6,34.8,30.40,West,278,0.0,0.0,93,0.00,,---,0.00,VWS V14.01,2013-01-09 10:55:00,
2013-01-09 05:59:00,36.5,34.7,30.40,West,278,0.0,0.0,93,0.00,,---,0.00,VWS V14.01,2013-01-09 10:59:00,
2013-01-09 06:00:00,36.5,34.7,30.40,West,278,0.0,0.0,93,0.00,,---,0.00,VWS V14.01,2013-01-09 11:00:00,
2013-01-09 06:05:00,36.6,35.0,30.40,West,278,0.0,0.0,94,0.00,,---,0.00,VWS V14.01,2013-01-09 11:05:00,
2013-01-09 06:10:00,36.6,35.0,30.40,West,278,0.0,0.0,94,0.00,,---,0.00,VWS V14.01,2013-01-09 11:10:00,
2013-01-09 06:14:00,36.3,34.5,30.40,West,278,0.0,1.0,93,0.00,,---,0.00,VWS V14.01,2013-01-09 11:14:00,
2013-01-09 06:15:00,36.3,34.5,30.40,West,278,0.0,1.0,93,0.00,,---,0.00,VWS V14.01,2013-01-09 11:15:00,
2013-01-09 06:19:00,36.5,34.9,30.40,West,278,0.0,0.0,94,0.00,,---,0.00,VWS V14.01,2013-01-09 11:19:00,
2013-01-09 06:20:00,36.5,34.9,30.40,West,278,0.0,0.0,94,0.00,,---,0.00,VWS V14.01,2013-01-09 11:20:00,
2013-01-09 06:24:00,36.3,34.5,30.40,West,278,0.0,0.0,93,0.00,,---,0.00,VWS V14.01,2013-01-09 11:24:00,
2013-01-09 06:25:00,36.3,34.5,30.40,West,278,0.0,0.0,93,0.00,,---,0.00,VWS V14.01,2013-01-09 11:25:00,
2013-01-09 06:30:00,36.1,34.3,30.40,West,278,0.0,0.0,93,0.00,,---,0.00,VWS V14.01,2013-01-09 11:30:00,
2013-01-09 06:35:00,36.0,34.4,30.40,West,278,0.0,0.0,94,0.00,,---,0.00,VWS V14.01,2013-01-09 11:35:00,
2013-01-09 06:40:00,35.9,34.1,30.41,West,278,0.0,0.0,93,0.00,,---,0.00,VWS V14.01,2013-01-09 11:40:00,
2013-01-09 06:45:00,35.9,34.3,30.41,West,278,0.0,0.0,94,0.00,,---,0.00,VWS V14.01,2013-01-09 11:45:00,
2013-01-09 06:50:00,35.9,34.3,30.41,West,278,0.0,0.0,94,0.00,,---,0.00,VWS V14.01,2013-01-09 11:50:00,
2013-01-09 06:55:00,36.1,34.5,30.41,West,278,0.0,0.0,94,0.00,,---,0.00,VWS V14.01,2013-01-09 11:55:00,
2013-01-09 07:00:00,36.1,34.5,30.41,West,278,0.0,0.0,94,0.00,,---,0.00,VWS V14.01,2013-01-09 12:00:00,
2013-01-09 07:05:00,36.2,34.6,30.41,West,278,0.0,0.0,94,0.00,,---,0.00,VWS V14.01,2013-01-09 12:05:00,
2013-01-09 07:09:00,36.3,34.7,30.41,West,278,0.0,0.0,94,0.00,,---,0.00,VWS V14.01,2013-01-09 12:09:00,
2013-01-09 07:10:00,36.3,34.7,30.41,West,278,0.0,0.0,94,0.00,,---,0.00,VWS V14.01,2013-01-09 12:10:00,
2013-01-09 07:15:00,36.5,34.9,30.42,West,278,0.0,0.0,94,0.00,,---,0.00,VWS V14.01,2013-01-09 12:15:00,
2013-01-09 07:20:00,36.6,35.0,30.42,West,278,0.0,0.0,94,0.00,,---,0.00,VWS V14.01,2013-01-09 12:20:00,
2013-01-09 07:25:00,36.8,35.2,30.42,West,278,0.0,0.0,94,0.00,,---,0.00,VWS V14.01,2013-01-09 12:25:00,
2013-01-09 07:30:00,37.0,35.4,30.43,West,278,0.0,0.0,94,0.00,,---,0.00,VWS V14.01,2013-01-09 12:30:00,
2013-01-09 07:35:00,36.9,35.3,30.43,West,278,0.0,1.0,94,0.00,,---,0.00,VWS V14.01,2013-01-09 12:35:00,
2013-01-09 07:40:00,37.0,35.4,30.43,West,278,0.0,1.0,94,0.00,,---,0.00,VWS V14.01,2013-01-09 12:40:00,
2013-01-09 07:45:00,37.0,35.4,30.43,West,278,0.0,0.0,94,0.00,,---,0.00,VWS V14.01,2013-01-09 12:45:00,
2013-01-09 07:50:00,37.1,35.5,30.43,West,278,0.0,0.0,94,0.00,,---,0.00,VWS V14.01,2013-01-09 12:50:00,
2013-01-09 07:55:00,36.8,35.0,30.43,West,278,0.0,0.0,93,0.00,,---,0.00,VWS V14.01,2013-01-09 12:55:00,
2013-01-09 08:00:00,37.0,35.4,30.44,West,278,0.0,0.0,94,0.00,,---,0.00,VWS V14.01,2013-01-09 13:00:00,
2013-01-09 08:05:00,37.2,35.6,30.44,West,278,0.0,0.0,94,0.00,,---,0.00,VWS V14.01,2013-01-09 13:05:00,
2013-01-09 08:10:00,37.5,36.2,30.44,West,278,0.0,0.0,95,0.00,,---,0.00,VWS V14.01,2013-01-09 13:10:00,
2013-01-09 08:14:00,37.6,36.0,30.44,West,278,0.0,2.0,94,0.00,,---,0.00,VWS V14.01,2013-01-09 13:14:00,
2013-01-09 08:15:00,37.6,36.0,30.44,West,278,0.0,2.0,94,0.00,,---,0.00,VWS V14.01,2013-01-09 13:15:00,
2013-01-09 08:19:00,38.0,36.7,30.45,West,278,0.0,1.0,95,0.00,,---,0.00,VWS V14.01,2013-01-09 13:19:00,
2013-01-09 08:20:00,38.0,36.7,30.45,West,278,0.0,1.0,95,0.00,,---,0.00,VWS V14.01,2013-01-09 13:20:00,
2013-01-09 08:24:00,38.0,36.4,30.45,West,278,0.0,1.0,94,0.00,,---,0.00,VWS V14.01,2013-01-09 13:24:00,
2013-01-09 08:25:00,38.0,36.4,30.45,West,278,0.0,1.0,94,0.00,,---,0.00,VWS V14.01,2013-01-09 13:25:00,
2013-01-09 08:29:00,38.4,37.1,30.45,West,278,0.0,1.0,95,0.00,,---,0.00,VWS V14.01,2013-01-09 13:29:00,
2013-01-09 08:30:00,38.4,37.1,30.45,West,278,0.0,1.0,95,0.00,,---,0.00,VWS V14.01,2013-01-09 13:30:00,
2013-01-09 08:34:00,38.7,37.4,30.45,West,278,0.0,0.0,95,0.00,,---,0.00,VWS V14.01,2013-01-09 13:34:00,
2013-01-09 08:35:00,38.7,37.4,30.45,West,278,0.0,0.0,95,0.00,,---,0.00,VWS V14.01,2013-01-09 13:35:00,
2013-01-09 08:40:00,39.1,37.8,30.46,West,278,0.0,2.0,95,0.00,,---,0.00,VWS V14.01,2013-01-09 13:40:00,
2013-01-09 08:45:00,39.2,37.6,30.46,West,278,0.0,2.0,94,0.00,,---,0.00,VWS V14.01,2013-01-09 13:45:00,
2013-01-09 08:49:00,39.9,38.3,30.46,West,278,0.0,0.0,94,0.00,,---,0.00,VWS V14.01,2013-01-09 13:49:00,
2013-01-09 08:50:00,39.9,38.3,30.46,West,278,0.0,0.0,94,0.00,,---,0.00,VWS V14.01,2013-01-09 13:50:00,
2013-01-09 08:55:00,40.5,38.9,30.46,West,278,0.0,1.0,94,0.00,,---,0.00,VWS V14.01,2013-01-09 13:55:00,
2013-01-09 08:59:00,40.8,38.9,30.45,West,278,0.0,0.0,93,0.00,,---,0.00,VWS V14.01,2013-01-09 13:59:00,
2013-01-09 09:00:00,40.8,38.9,30.45,West,278,0.0,0.0,93,0.00,,---,0.00,VWS V14.01,2013-01-09 14:00:00,
2013-01-09 09:05:00,41.3,39.4,30.46,West,278,0.0,1.0,93,0.00,,---,0.00,VWS V14.01,2013-01-09 14:05:00,
2013-01-09 09:10:00,41.6,39.7,30.45,West,278,0.0,0.0,93,0.00,,---,0.00,VWS V14.01,2013-01-09 14:10:00,
2013-01-09 09:14:00,41.9,40.0,30.45,West,278,0.0,0.0,93,0.00,,---,0.00,VWS V14.01,2013-01-09 14:14:00,
2013-01-09 09:15:00,41.9,40.0,30.45,West,278,0.0,0.0,93,0.00,,---,0.00,VWS V14.01,2013-01-09 14:15:00,
2013-01-09 09:19:00,42.3,40.4,30.46,West,278,0.0,0.0,93,0.00,,---,0.00,VWS V14.01,2013-01-09 14:19:00,
2013-01-09 09:20:00,42.3,40.4,30.46,West,278,0.0,0.0,93,0.00,,---,0.00,VWS V14.01,2013-01-09 14:20:00,
2013-01-09 09:24:00,42.7,40.8,30.46,West,278,0.0,0.0,93,0.00,,---,0.00,VWS V14.01,2013-01-09 14:24:00,
2013-01-09 09:25:00,42.7,40.8,30.46,West,278,0.0,0.0,93,0.00,,---,0.00,VWS V14.01,2013-01-09 14:25:00,
2013-01-09 09:29:00,43.2,41.0,30.46,West,278,0.0,0.0,92,0.00,,---,0.00,VWS V14.01,2013-01-09 14:29:00,
2013-01-09 09:30:00,43.2,41.0,30.46,West,278,0.0,0.0,92,0.00,,---,0.00,VWS V14.01,2013-01-09 14:30:00,
2013-01-09 09:34:00,43.7,41.2,30.46,West,278,0.0,1.0,91,0.00,,---,0.00,VWS V14.01,2013-01-09 14:34:00,
2013-01-09 09:35:00,43.7,41.2,30.46,West,278,0.0,1.0,91,0.00,,---,0.00,VWS V14.01,2013-01-09 14:35:00,
2013-01-09 09:39:00,44.3,41.3,30.47,West,278,1.0,2.0,89,0.00,,---,0.00,VWS V14.01,2013-01-09 14:39:00,
2013-01-09 09:40:00,44.3,41.3,30.47,West,278,1.0,2.0,89,0.00,,---,0.00,VWS V14.01,2013-01-09 14:40:00,
2013-01-09 09:44:00,45.0,41.4,30.46,West,278,0.0,2.0,87,0.00,,---,0.00,VWS V14.01,2013-01-09 14:44:00,
2013-01-09 09:45:00,45.0,41.4,30.46,West,278,0.0,2.0,87,0.00,,---,0.00,VWS V14.01,2013-01-09 14:45:00,
2013-01-09 09:49:00,45.5,41.6,30.46,West,278,0.0,2.0,86,0.00,,---,0.00,VWS V14.01,2013-01-09 14:49:00,
2013-01-09 09:50:00,45.5,41.6,30.46,West,278,0.0,2.0,86,0.00,,---,0.00,VWS V14.01,2013-01-09 14:50:00,
2013-01-09 09:54:00,46.0,42.0,30.47,West,278,0.0,0.0,86,0.00,,---,0.00,VWS V14.01,2013-01-09 14:54:00,
2013-01-09 09:55:00,46.0,42.0,30.47,West,278,0.0,0.0,86,0.00,,---,0.00,VWS V14.01,2013-01-09 14:55:00,
2013-01-09 09:59:00,46.6,42.6,30.47,West,278,1.0,3.0,86,0.00,,---,0.00,VWS V14.01,2013-01-09 14:59:00,
2013-01-09 10:00:00,46.6,42.6,30.47,West,278,1.0,3.0,86,0.00,,---,0.00,VWS V14.01,2013-01-09 15:00:00,
2013-01-09 10:04:00,47.2,42.9,30.47,West,278,0.0,1.0,85,0.00,,---,0.00,VWS V14.01,2013-01-09 15:04:00,
2013-01-09 10:05:00,47.2,42.9,30.47,West,278,0.0,1.0,85,0.00,,---,0.00,VWS V14.01,2013-01-09 15:05:00,
2013-01-09 10:09:00,47.8,43.2,30.48,West,278,0.0,2.0,84,0.00,,---,0.00,VWS V14.01,2013-01-09 15:09:00,
2013-01-09 10:10:00,47.8,43.2,30.48,West,278,0.0,2.0,84,0.00,,---,0.00,VWS V14.01,2013-01-09 15:10:00,
2013-01-09 10:15:00,48.4,43.5,30.48,West,278,1.0,1.0,83,0.00,,---,0.00,VWS V14.01,2013-01-09 15:15:00,
2013-01-09 10:20:00,48.9,43.3,30.47,WSW,252,1.0,2.0,81,0.00,,---,0.00,VWS V14.01,2013-01-09 15:20:00,
2013-01-09 10:24:00,49.3,43.7,30.47,WSW,251,0.0,3.0,81,0.00,,---,0.00,VWS V14.01,2013-01-09 15:24:00,
2013-01-09 10:25:00,49.3,43.7,30.47,WSW,251,0.0,3.0,81,0.00,,---,0.00,VWS V14.01,2013-01-09 15:25:00,
2013-01-09 10:30:00,49.8,44.2,30.47,WSW,250,2.0,3.0,81,0.00,,---,0.00,VWS V14.01,2013-01-09 15:30:00,
2013-01-09 10:35:00,50.3,44.4,30.47,WSW,250,2.0,3.0,80,0.00,,---,0.00,VWS V14.01,2013-01-09 15:35:00,
2013-01-09 10:39:00,50.9,44.6,30.46,SW,219,1.0,4.0,79,0.00,,---,0.00,VWS V14.01,2013-01-09 15:39:00,
2013-01-09 10:40:00,50.9,44.6,30.46,SW,219,1.0,4.0,79,0.00,,---,0.00,VWS V14.01,2013-01-09 15:40:00,
2013-01-09 10:44:00,51.5,45.2,30.45,SSW,200,0.0,4.0,79,0.00,,---,0.00,VWS V14.01,2013-01-09 15:44:00,
2013-01-09 10:45:00,51.5,45.2,30.45,SSW,200,0.0,4.0,79,0.00,,---,0.00,VWS V14.01,2013-01-09 15:45:00,
2013-01-09 10:50:00,52.2,45.2,30.45,SSW,202,0.0,5.0,77,0.00,,---,0.00,VWS V14.01,2013-01-09 15:50:00,
2013-01-09 10:54:00,52.7,46.0,30.44,SW,217,1.0,3.0,78,0.00,,---,0.00,VWS V14.01,2013-01-09 15:54:00,
2013-01-09 10:55:00,52.7,46.0,30.44,SW,217,1.0,3.0,78,0.00,,---,0.00,VWS V14.01,2013-01-09 15:55:00,
2013-01-09 11:00:00,53.2,45.8,30.44,SSW,200,0.0,4.0,76,0.00,,---,0.00,VWS V14.01,2013-01-09 16:00:00,
2013-01-09 11:05:00,53.6,46.2,30.44,SSW,200,0.0,2.0,76,0.00,,---,0.00,VWS V14.01,2013-01-09 16:05:00,
2013-01-09 11:10:00,54.0,46.3,30.43,SSW,198,0.0,3.0,75,0.00,,---,0.00,VWS V14.01,2013-01-09 16:10:00,
2013-01-09 11:15:00,54.5,46.4,30.43,SSW,198,2.0,4.0,74,0.00,,---,0.00,VWS V14.01,2013-01-09 16:15:00,
2013-01-09 11:20:00,55.0,46.5,30.43,SSW,198,0.0,2.0,73,0.00,,---,0.00,VWS V14.01,2013-01-09 16:20:00,
2013-01-09 11:24:00,55.2,46.3,30.42,SSW,212,1.0,7.0,72,0.00,,---,0.00,VWS V14.01,2013-01-09 16:24:00,
2013-01-09 11:25:00,55.2,46.3,30.42,SSW,212,1.0,7.0,72,0.00,,---,0.00,VWS V14.01,2013-01-09 16:25:00,
2013-01-09 11:29:00,55.4,46.5,30.42,SW,232,1.0,6.0,72,0.00,,---,0.00,VWS V14.01,2013-01-09 16:29:00,
2013-01-09 11:30:00,55.4,46.5,30.42,SW,232,1.0,6.0,72,0.00,,---,0.00,VWS V14.01,2013-01-09 16:30:00,
2013-01-09 11:34:00,55.9,46.7,30.42,SSW,194,2.0,5.0,71,0.00,,---,0.00,VWS V14.01,2013-01-09 16:34:00,
2013-01-09 11:35:00,55.9,46.7,30.42,SSW,194,2.0,5.0,71,0.00,,---,0.00,VWS V14.01,2013-01-09 16:35:00,
2013-01-09 11:39:00,56.3,47.0,30.42,SW,236,0.0,5.0,71,0.00,,---,0.00,VWS V14.01,2013-01-09 16:39:00,
2013-01-09 11:40:00,56.3,47.0,30.42,SW,236,0.0,5.0,71,0.00,,---,0.00,VWS V14.01,2013-01-09 16:40:00,
2013-01-09 11:44:00,56.6,46.9,30.42,SW,227,2.0,5.0,70,0.00,,---,0.00,VWS V14.01,2013-01-09 16:44:00,
2013-01-09 11:45:00,56.6,46.9,30.42,SW,227,2.0,5.0,70,0.00,,---,0.00,VWS V14.01,2013-01-09 16:45:00,
2013-01-09 11:49:00,56.9,47.6,30.42,SW,230,1.0,5.0,71,0.00,,---,0.00,VWS V14.01,2013-01-09 16:49:00,
2013-01-09 11:50:00,56.9,47.6,30.42,SW,230,1.0,5.0,71,0.00,,---,0.00,VWS V14.01,2013-01-09 16:50:00,
2013-01-09 11:54:00,57.3,48.0,30.42,WSW,249,1.0,6.0,71,0.00,,---,0.00,VWS V14.01,2013-01-09 16:54:00,
2013-01-09 11:55:00,57.3,48.0,30.42,WSW,249,1.0,6.0,71,0.00,,---,0.00,VWS V14.01,2013-01-09 16:55:00,
2013-01-09 11:59:00,57.4,47.7,30.42,South,171,0.0,8.0,70,0.00,,---,0.00,VWS V14.01,2013-01-09 16:59:00,
2013-01-09 12:00:00,57.4,47.7,30.42,South,171,0.0,8.0,70,0.00,,---,0.00,VWS V14.01,2013-01-09 17:00:00,
2013-01-09 12:05:00,57.4,48.1,30.41,SSW,202,3.0,9.0,71,0.00,,---,0.00,VWS V14.01,2013-01-09 17:05:00,
2013-01-09 12:10:00,57.7,48.4,30.41,SSW,204,2.0,5.0,71,0.00,,---,0.00,VWS V14.01,2013-01-09 17:10:00,
2013-01-09 12:14:00,58.1,48.4,30.41,SSW,192,2.0,6.0,70,0.00,,---,0.00,VWS V14.01,2013-01-09 17:14:00,
2013-01-09 12:15:00,58.1,48.4,30.41,SSW,192,2.0,6.0,70,0.00,,---,0.00,VWS V14.01,2013-01-09 17:15:00,
2013-01-09 12:20:00,58.3,48.6,30.41,SSW,194,0.0,6.0,70,0.00,,---,0.00,VWS V14.01,2013-01-09 17:20:00,
2013-01-09 12:25:00,58.6,48.9,30.40,SSW,202,0.0,4.0,70,0.00,,---,0.00,VWS V14.01,2013-01-09 17:25:00,
2013-01-09 12:30:00,59.2,49.0,30.40,South,170,2.0,5.0,69,0.00,,---,0.00,VWS V14.01,2013-01-09 17:30:00,
2013-01-09 12:35:00,59.6,49.4,30.40,South,176,4.0,7.0,69,0.00,,---,0.00,VWS V14.01,2013-01-09 17:35:00,
2013-01-09 12:39:00,59.9,49.7,30.40,SW,224,1.0,9.0,69,0.00,,---,0.00,VWS V14.01,2013-01-09 17:39:00,
2013-01-09 12:40:00,59.9,49.7,30.40,SW,224,1.0,9.0,69,0.00,,---,0.00,VWS V14.01,2013-01-09 17:40:00,
2013-01-09 12:44:00,60.2,50.0,30.39,SW,221,3.0,9.0,69,0.00,,---,0.00,VWS V14.01,2013-01-09 17:44:00,
2013-01-09 12:45:00,60.2,50.0,30.39,SW,221,3.0,9.0,69,0.00,,---,0.00,VWS V14.01,2013-01-09 17:45:00,
2013-01-09 12:49:00,60.4,50.2,30.39,SW,229,6.0,7.0,69,0.00,,---,0.00,VWS V14.01,2013-01-09 17:49:00,
2013-01-09 12:50:00,60.4,50.2,30.39,SW,229,6.0,7.0,69,0.00,,---,0.00,VWS V14.01,2013-01-09 17:50:00,
2013-01-09 12:54:00,60.4,50.2,30.39,SSW,196,2.0,7.0,69,0.00,,---,0.00,VWS V14.01,2013-01-09 17:54:00,
2013-01-09 12:55:00,60.4,50.2,30.39,SSW,196,2.0,7.0,69,0.00,,---,0.00,VWS V14.01,2013-01-09 17:55:00,
2013-01-09 12:59:00,60.4,50.2,30.38,West,271,2.0,5.0,69,0.00,,---,0.00,VWS V14.01,2013-01-09 17:59:00,
2013-01-09 13:00:00,60.4,50.2,30.38,West,271,2.0,5.0,69,0.00,,---,0.00,VWS V14.01,2013-01-09 18:00:00,
2013-01-09 13:04:00,60.5,50.3,30.39,SW,219,3.0,4.0,69,0.00,,---,0.00,VWS V14.01,2013-01-09 18:04:00,
2013-01-09 13:05:00,60.5,50.3,30.39,SW,219,3.0,4.0,69,0.00,,---,0.00,VWS V14.01,2013-01-09 18:05:00,
2013-01-09 13:09:00,60.8,50.6,30.38,SSW,192,0.0,5.0,69,0.00,,---,0.00,VWS V14.01,2013-01-09 18:09:00,
2013-01-09 13:10:00,60.8,50.6,30.38,SSW,192,0.0,5.0,69,0.00,,---,0.00,VWS V14.01,2013-01-09 18:10:00,
2013-01-09 13:14:00,61.2,51.3,30.39,West,271,4.0,4.0,70,0.00,,---,0.00,VWS V14.01,2013-01-09 18:14:00,
2013-01-09 13:15:00,61.2,51.3,30.39,West,271,4.0,4.0,70,0.00,,---,0.00,VWS V14.01,2013-01-09 18:15:00,
2013-01-09 13:20:00,61.3,51.5,30.39,West,268,4.0,9.0,70,0.00,,---,0.00,VWS V14.01,2013-01-09 18:20:00,
2013-01-09 13:25:00,61.1,51.2,30.39,West,279,2.0,5.0,70,0.00,,---,0.00,VWS V14.01,2013-01-09 18:25:00,
2013-01-09 13:29:00,61.3,51.5,30.39,SW,236,2.0,5.0,70,0.00,,---,0.00,VWS V14.01,2013-01-09 18:29:00,
2013-01-09 13:30:00,61.3,51.4,30.39,SW,236,2.0,5.0,70,0.00,,---,0.00,VWS V14.01,2013-01-09 18:30:00,
2013-01-09 13:34:00,61.4,51.2,30.39,SW,231,4.0,10.0,69,0.00,,---,0.00,VWS V14.01,2013-01-09 18:34:00,
2013-01-09 13:35:00,61.4,51.2,30.39,SW,231,4.0,10.0,69,0.00,,---,0.00,VWS V14.01,2013-01-09 18:35:00,
2013-01-09 13:39:00,61.3,51.1,30.39,West,265,7.0,7.0,69,0.00,,---,0.00,VWS V14.01,2013-01-09 18:39:00,
2013-01-09 13:40:00,61.3,51.1,30.39,West,265,7.0,7.0,69,0.00,,---,0.00,VWS V14.01,2013-01-09 18:40:00,
2013-01-09 13:44:00,60.9,51.1,30.39,West,273,1.0,9.0,70,0.00,,---,0.00,VWS V14.01,2013-01-09 18:44:00,
2013-01-09 13:45:00,60.9,51.1,30.39,West,273,1.0,9.0,70,0.00,,---,0.00,VWS V14.01,2013-01-09 18:45:00,
2013-01-09 13:49:00,60.8,51.0,30.39,SSW,198,3.0,6.0,70,0.00,,---,0.00,VWS V14.01,2013-01-09 18:49:00,
2013-01-09 13:50:00,60.8,51.0,30.39,SSW,198,3.0,6.0,70,0.00,,---,0.00,VWS V14.01,2013-01-09 18:50:00,
2013-01-09 13:54:00,60.5,50.7,30.38,WSW,251,3.0,6.0,70,0.00,,---,0.00,VWS V14.01,2013-01-09 18:54:00,
2013-01-09 13:55:00,60.5,50.7,30.38,WSW,251,3.0,6.0,70,0.00,,---,0.00,VWS V14.01,2013-01-09 18:55:00,
2013-01-09 13:59:00,60.4,50.6,30.38,WSW,257,2.0,5.0,70,0.00,,---,0.00,VWS V14.01,2013-01-09 18:59:00,
2013-01-09 14:00:00,60.4,50.6,30.38,WSW,257,2.0,5.0,70,0.00,,---,0.00,VWS V14.01,2013-01-09 19:00:00,
2013-01-09 14:04:00,60.3,50.5,30.38,WSW,248,5.0,5.0,70,0.00,,---,0.00,VWS V14.01,2013-01-09 19:04:00,
2013-01-09 14:05:00,60.3,50.5,30.38,WSW,248,5.0,5.0,70,0.00,,---,0.00,VWS V14.01,2013-01-09 19:05:00,
2013-01-09 14:09:00,60.4,50.6,30.38,SSW,206,0.0,5.0,70,0.00,,---,0.00,VWS V14.01,2013-01-09 19:09:00,
2013-01-09 14:10:00,60.4,50.6,30.38,SSW,206,0.0,5.0,70,0.00,,---,0.00,VWS V14.01,2013-01-09 19:10:00,
2013-01-09 14:15:00,60.4,50.6,30.38,SW,236,3.0,9.0,70,0.00,,---,0.00,VWS V14.01,2013-01-09 19:15:00,
2013-01-09 14:20:00,60.4,50.6,30.38,South,190,3.0,9.0,70,0.00,,---,0.00,VWS V14.01,2013-01-09 19:20:00,
2013-01-09 14:25:00,60.3,50.5,30.38,SW,220,2.0,6.0,70,0.00,,---,0.00,VWS V14.01,2013-01-09 19:25:00,
2013-01-09 14:29:00,60.3,50.5,30.38,West,279,1.0,5.0,70,0.00,,---,0.00,VWS V14.01,2013-01-09 19:29:00,
2013-01-09 14:30:00,60.3,50.5,30.38,West,279,1.0,5.0,70,0.00,,---,0.00,VWS V14.01,2013-01-09 19:30:00,
2013-01-09 14:34:00,60.4,50.6,30.38,WSW,252,0.0,2.0,70,0.00,,---,0.00,VWS V14.01,2013-01-09 19:34:00,
2013-01-09 14:35:00,60.4,50.6,30.38,WSW,252,0.0,2.0,70,0.00,,---,0.00,VWS V14.01,2013-01-09 19:35:00,
2013-01-09 14:39:00,60.4,51.0,30.38,West,259,0.0,3.0,71,0.00,,---,0.00,VWS V14.01,2013-01-09 19:39:00,
2013-01-09 14:40:00,60.4,51.0,30.38,West,259,0.0,3.0,71,0.00,,---,0.00,VWS V14.01,2013-01-09 19:40:00,
2013-01-09 14:44:00,60.4,51.0,30.38,West,260,3.0,3.0,71,0.00,,---,0.00,VWS V14.01,2013-01-09 19:44:00,
2013-01-09 14:45:00,60.4,51.0,30.38,West,260,3.0,3.0,71,0.00,,---,0.00,VWS V14.01,2013-01-09 19:45:00,
2013-01-09 14:49:00,60.4,51.0,30.39,West,260,1.0,3.0,71,0.00,,---,0.00,VWS V14.01,2013-01-09 19:49:00,
2013-01-09 14:50:00,60.4,51.0,30.39,West,260,1.0,3.0,71,0.00,,---,0.00,VWS V14.01,2013-01-09 19:50:00,
2013-01-09 14:54:00,60.5,51.1,30.39,West,260,0.0,2.0,71,0.00,,---,0.00,VWS V14.01,2013-01-09 19:54:00,
2013-01-09 14:55:00,60.5,51.1,30.39,West,260,0.0,2.0,71,0.00,,---,0.00,VWS V14.01,2013-01-09 19:55:00,
2013-01-09 14:59:00,60.5,50.7,30.39,West,260,0.0,1.0,70,0.00,,---,0.00,VWS V14.01,2013-01-09 19:59:00,
2013-01-09 15:00:00,60.5,50.7,30.39,West,260,0.0,1.0,70,0.00,,---,0.00,VWS V14.01,2013-01-09 20:00:00,
2013-01-09 15:04:00,60.6,50.8,30.39,West,260,0.0,2.0,70,0.00,,---,0.00,VWS V14.01,2013-01-09 20:04:00,
2013-01-09 15:05:00,60.6,50.8,30.39,West,260,0.0,2.0,70,0.00,,---,0.00,VWS V14.01,2013-01-09 20:05:00,
2013-01-09 15:09:00,60.5,50.7,30.39,West,260,1.0,3.0,70,0.00,,---,0.00,VWS V14.01,2013-01-09 20:09:00,
2013-01-09 15:10:00,60.5,50.7,30.39,West,260,1.0,3.0,70,0.00,,---,0.00,VWS V14.01,2013-01-09 20:10:00,
2013-01-09 15:14:00,60.4,50.6,30.39,West,260,1.0,2.0,70,0.00,,---,0.00,VWS V14.01,2013-01-09 20:14:00,
2013-01-09 15:15:00,60.4,50.6,30.39,West,260,1.0,2.0,70,0.00,,---,0.00,VWS V14.01,2013-01-09 20:15:00,
2013-01-09 15:19:00,60.3,50.5,30.39,West,260,2.0,2.0,70,0.00,,---,0.00,VWS V14.01,2013-01-09 20:19:00,
2013-01-09 15:20:00,60.3,50.5,30.39,West,260,2.0,2.0,70,0.00,,---,0.00,VWS V14.01,2013-01-09 20:20:00,
2013-01-09 15:24:00,60.1,50.3,30.39,West,260,1.0,2.0,70,0.00,,---,0.00,VWS V14.01,2013-01-09 20:24:00,
2013-01-09 15:25:00,60.1,50.3,30.39,West,260,1.0,2.0,70,0.00,,---,0.00,VWS V14.01,2013-01-09 20:25:00,
2013-01-09 15:29:00,60.0,50.6,30.40,West,260,0.0,1.0,71,0.00,,---,0.00,VWS V14.01,2013-01-09 20:29:00,
2013-01-09 15:30:00,60.0,50.6,30.40,West,260,0.0,1.0,71,0.00,,---,0.00,VWS V14.01,2013-01-09 20:30:00,
2013-01-09 15:35:00,59.8,50.4,30.40,West,260,0.0,1.0,71,0.00,,---,0.00,VWS V14.01,2013-01-09 20:35:00,
2013-01-09 15:40:00,59.7,50.3,30.40,West,259,1.0,2.0,71,0.00,,---,0.00,VWS V14.01,2013-01-09 20:40:00,
2013-01-09 15:45:00,59.6,50.2,30.40,West,259,0.0,2.0,71,0.00,,---,0.00,VWS V14.01,2013-01-09 20:45:00,
2013-01-09 15:49:00,59.5,50.1,30.40,West,260,0.0,2.0,71,0.00,,---,0.00,VWS V14.01,2013-01-09 20:49:00,
2013-01-09 15:50:00,59.5,50.1,30.40,West,260,0.0,2.0,71,0.00,,---,0.00,VWS V14.01,2013-01-09 20:50:00,
2013-01-09 15:55:00,59.6,50.6,30.40,West,260,0.0,1.0,72,0.00,,---,0.00,VWS V14.01,2013-01-09 20:55:00,
2013-01-09 16:00:00,59.5,50.5,30.39,West,259,0.0,1.0,72,0.00,,---,0.00,VWS V14.01,2013-01-09 21:00:00,
2013-01-09 16:04:00,59.5,50.5,30.39,West,259,0.0,1.0,72,0.00,,---,0.00,VWS V14.01,2013-01-09 21:04:00,
2013-01-09 16:05:00,59.5,50.5,30.39,West,259,0.0,1.0,72,0.00,,---,0.00,VWS V14.01,2013-01-09 21:05:00,
2013-01-09 16:09:00,59.5,50.5,30.39,West,260,0.0,0.0,72,0.00,,---,0.00,VWS V14.01,2013-01-09 21:09:00,
2013-01-09 16:10:00,59.5,50.5,30.39,West,260,0.0,0.0,72,0.00,,---,0.00,VWS V14.01,2013-01-09 21:10:00,
2013-01-09 16:14:00,59.5,50.5,30.39,West,259,0.0,0.0,72,0.00,,---,0.00,VWS V14.01,2013-01-09 21:14:00,
2013-01-09 16:15:00,59.5,50.5,30.39,West,259,0.0,0.0,72,0.00,,---,0.00,VWS V14.01,2013-01-09 21:15:00,
2013-01-09 16:19:00,59.5,50.5,30.39,West,260,0.0,0.0,72,0.00,,---,0.00,VWS V14.01,2013-01-09 21:19:00,
2013-01-09 16:20:00,59.5,50.5,30.39,West,260,0.0,0.0,72,0.00,,---,0.00,VWS V14.01,2013-01-09 21:20:00,
2013-01-09 16:24:00,59.5,50.5,30.40,West,260,0.0,1.0,72,0.00,,---,0.00,VWS V14.01,2013-01-09 21:24:00,
2013-01-09 16:25:00,59.5,50.5,30.40,West,260,0.0,1.0,72,0.00,,---,0.00,VWS V14.01,2013-01-09 21:25:00,
2013-01-09 16:29:00,59.4,50.8,30.40,West,260,0.0,1.0,73,0.00,,---,0.00,VWS V14.01,2013-01-09 21:29:00,
2013-01-09 16:30:00,59.4,50.8,30.40,West,260,0.0,1.0,73,0.00,,---,0.00,VWS V14.01,2013-01-09 21:30:00,
2013-01-09 16:35:00,59.3,50.7,30.40,West,260,0.0,1.0,73,0.00,,---,0.00,VWS V14.01,2013-01-09 21:35:00,
2013-01-09 16:40:00,59.3,50.3,30.40,West,259,0.0,2.0,72,0.00,,---,0.00,VWS V14.01,2013-01-09 21:40:00,
2013-01-09 16:45:00,59.3,50.7,30.39,West,259,0.0,0.0,73,0.00,,---,0.00,VWS V14.01,2013-01-09 21:45:00,
2013-01-09 16:50:00,59.3,50.3,30.40,West,260,0.0,0.0,72,0.00,,---,0.00,VWS V14.01,2013-01-09 21:50:00,
2013-01-09 16:55:00,59.3,50.7,30.39,West,259,0.0,0.0,73,0.00,,---,0.00,VWS V14.01,2013-01-09 21:55:00,
2013-01-09 17:00:00,59.2,50.6,30.39,West,259,0.0,0.0,73,0.00,,---,0.00,VWS V14.01,2013-01-09 22:00:00,
2013-01-09 17:04:00,59.0,50.4,30.39,West,260,0.0,0.0,73,0.00,,---,0.00,VWS V14.01,2013-01-09 22:04:00,
2013-01-09 17:05:00,59.0,50.4,30.39,West,260,0.0,0.0,73,0.00,,---,0.00,VWS V14.01,2013-01-09 22:05:00,
2013-01-09 17:09:00,58.8,50.5,30.39,West,259,0.0,0.0,74,0.00,,---,0.00,VWS V14.01,2013-01-09 22:09:00,
2013-01-09 17:10:00,58.8,50.5,30.39,West,259,0.0,0.0,74,0.00,,---,0.00,VWS V14.01,2013-01-09 22:10:00,
2013-01-09 17:14:00,58.6,50.3,30.39,West,259,0.0,0.0,74,0.00,,---,0.00,VWS V14.01,2013-01-09 22:14:00,
2013-01-09 17:15:00,58.6,50.3,30.39,West,259,0.0,0.0,74,0.00,,---,0.00,VWS V14.01,2013-01-09 22:15:00,
2013-01-09 17:19:00,58.4,50.5,30.39,West,260,0.0,0.0,75,0.00,,---,0.00,VWS V14.01,2013-01-09 22:19:00,
2013-01-09 17:20:00,58.4,50.5,30.39,West,260,0.0,0.0,75,0.00,,---,0.00,VWS V14.01,2013-01-09 22:20:00,
2013-01-09 17:24:00,58.1,50.2,30.38,West,260,0.0,0.0,75,0.00,,---,0.00,VWS V14.01,2013-01-09 22:24:00,
2013-01-09 17:25:00,58.1,50.2,30.38,West,260,0.0,0.0,75,0.00,,---,0.00,VWS V14.01,2013-01-09 22:25:00,
2013-01-09 17:29:00,57.9,50.4,30.38,West,260,0.0,0.0,76,0.00,,---,0.00,VWS V14.01,2013-01-09 22:29:00,
2013-01-09 17:30:00,57.9,50.4,30.38,West,260,0.0,0.0,76,0.00,,---,0.00,VWS V14.01,2013-01-09 22:30:00,
2013-01-09 17:34:00,57.7,50.2,30.38,West,260,0.0,0.0,76,0.00,,---,0.00,VWS V14.01,2013-01-09 22:34:00,
2013-01-09 17:35:00,57.7,50.2,30.38,West,260,0.0,0.0,76,0.00,,---,0.00,VWS V14.01,2013-01-09 22:35:00,
2013-01-09 17:39:00,57.5,50.4,30.38,West,259,0.0,0.0,77,0.00,,---,0.00,VWS V14.01,2013-01-09 22:39:00,
2013-01-09 17:40:00,57.5,50.4,30.38,West,259,0.0,0.0,77,0.00,,---,0.00,VWS V14.01,2013-01-09 22:40:00,
2013-01-09 17:44:00,57.3,50.2,30.38,West,260,0.0,0.0,77,0.00,,---,0.00,VWS V14.01,2013-01-09 22:44:00,
2013-01-09 17:45:00,57.3,50.2,30.38,West,260,0.0,0.0,77,0.00,,---,0.00,VWS V14.01,2013-01-09 22:45:00,
2013-01-09 17:49:00,57.2,50.1,30.39,West,260,0.0,0.0,77,0.00,,---,0.00,VWS V14.01,2013-01-09 22:49:00,
2013-01-09 17:50:00,57.2,50.1,30.39,West,260,0.0,0.0,77,0.00,,---,0.00,VWS V14.01,2013-01-09 22:50:00,
2013-01-09 17:54:00,57.0,50.2,30.39,West,260,0.0,0.0,78,0.00,,---,0.00,VWS V14.01,2013-01-09 22:54:00,
2013-01-09 17:55:00,57.0,50.2,30.39,West,260,0.0,0.0,78,0.00,,---,0.00,VWS V14.01,2013-01-09 22:55:00,
2013-01-09 18:00:00,56.8,50.4,30.39,West,259,1.0,1.0,79,0.00,,---,0.00,VWS V14.01,2013-01-09 23:00:00,
2013-01-09 18:05:00,56.7,50.3,30.39,West,259,0.0,1.0,79,0.00,,---,0.00,VWS V14.01,2013-01-09 23:05:00,
2013-01-09 18:09:00,56.6,50.2,30.39,West,259,0.0,0.0,79,0.00,,---,0.00,VWS V14.01,2013-01-09 23:09:00,
2013-01-09 18:10:00,56.6,50.2,30.39,West,259,0.0,0.0,79,0.00,,---,0.00,VWS V14.01,2013-01-09 23:10:00,
2013-01-09 18:14:00,56.5,50.1,30.39,West,260,0.0,0.0,79,0.00,,---,0.00,VWS V14.01,2013-01-09 23:14:00,
2013-01-09 18:15:00,56.5,50.1,30.39,West,260,0.0,0.0,79,0.00,,---,0.00,VWS V14.01,2013-01-09 23:15:00,
2013-01-09 18:20:00,56.4,50.0,30.39,West,260,0.0,0.0,79,0.00,,---,0.00,VWS V14.01,2013-01-09 23:20:00,
2013-01-09 18:25:00,56.1,50.0,30.39,West,259,0.0,0.0,80,0.00,,---,0.00,VWS V14.01,2013-01-09 23:25:00,
2013-01-09 18:30:00,55.8,49.7,30.39,West,260,0.0,0.0,80,0.00,,---,0.00,VWS V14.01,2013-01-09 23:30:00,
2013-01-09 18:34:00,55.6,49.9,30.39,West,260,0.0,0.0,81,0.00,,---,0.00,VWS V14.01,2013-01-09 23:34:00,
2013-01-09 18:35:00,55.6,49.9,30.39,West,260,0.0,0.0,81,0.00,,---,0.00,VWS V14.01,2013-01-09 23:35:00,
2013-01-09 18:40:00,55.6,49.9,30.39,West,260,0.0,0.0,81,0.00,,---,0.00,VWS V14.01,2013-01-09 23:40:00,
2013-01-09 18:45:00,55.6,49.9,30.39,West,260,0.0,0.0,81,0.00,,---,0.00,VWS V14.01,2013-01-09 23:45:00,
2013-01-09 18:50:00,55.4,49.7,30.39,West,259,0.0,0.0,81,0.00,,---,0.00,VWS V14.01,2013-01-09 23:50:00,
2013-01-09 18:55:00,55.3,49.6,30.39,West,260,0.0,0.0,81,0.00,,---,0.00,VWS V14.01,2013-01-09 23:55:00,
2013-01-09 19:00:00,55.1,49.7,30.39,West,259,0.0,1.0,82,0.00,,---,0.00,VWS V14.01,2013-01-10 00:00:00,
2013-01-09 19:05:00,55.0,49.3,30.39,West,260,0.0,0.0,81,0.00,,---,0.00,VWS V14.01,2013-01-10 00:05:00,
2013-01-09 19:10:00,54.7,49.3,30.39,West,260,0.0,0.0,82,0.00,,---,0.00,VWS V14.01,2013-01-10 00:10:00,
2013-01-09 19:14:00,54.4,49.3,30.40,West,259,0.0,0.0,83,0.00,,---,0.00,VWS V14.01,2013-01-10 00:14:00,
2013-01-09 19:15:00,54.4,49.3,30.40,West,259,0.0,0.0,83,0.00,,---,0.00,VWS V14.01,2013-01-10 00:15:00,
2013-01-09 19:19:00,54.2,49.2,30.40,West,260,0.0,0.0,83,0.00,,---,0.00,VWS V14.01,2013-01-10 00:19:00,
2013-01-09 19:20:00,54.2,49.2,30.40,West,260,0.0,0.0,83,0.00,,---,0.00,VWS V14.01,2013-01-10 00:20:00,
2013-01-09 19:24:00,54.1,49.4,30.40,West,259,0.0,0.0,84,0.00,,---,0.00,VWS V14.01,2013-01-10 00:24:00,
2013-01-09 19:25:00,54.1,49.4,30.40,West,259,0.0,0.0,84,0.00,,---,0.00,VWS V14.01,2013-01-10 00:25:00,
2013-01-09 19:29:00,54.0,49.3,30.40,West,260,0.0,0.0,84,0.00,,---,0.00,VWS V14.01,2013-01-10 00:29:00,
2013-01-09 19:30:00,54.0,49.3,30.40,West,260,0.0,0.0,84,0.00,,---,0.00,VWS V14.01,2013-01-10 00:30:00,
2013-01-09 19:34:00,53.8,49.1,30.40,West,260,0.0,0.0,84,0.00,,---,0.00,VWS V14.01,2013-01-10 00:34:00,
2013-01-09 19:35:00,53.8,49.1,30.40,West,260,0.0,0.0,84,0.00,,---,0.00,VWS V14.01,2013-01-10 00:35:00,
2013-01-09 19:39:00,53.6,48.9,30.40,West,260,0.0,0.0,84,0.00,,---,0.00,VWS V14.01,2013-01-10 00:39:00,
2013-01-09 19:40:00,53.6,48.9,30.40,West,260,0.0,0.0,84,0.00,,---,0.00,VWS V14.01,2013-01-10 00:40:00,
2013-01-09 19:44:00,53.3,48.9,30.41,West,259,0.0,0.0,85,0.00,,---,0.00,VWS V14.01,2013-01-10 00:44:00,
2013-01-09 19:45:00,53.3,48.9,30.41,West,259,0.0,0.0,85,0.00,,---,0.00,VWS V14.01,2013-01-10 00:45:00,
2013-01-09 19:49:00,53.1,48.4,30.41,West,259,0.0,0.0,84,0.00,,---,0.00,VWS V14.01,2013-01-10 00:49:00,
2013-01-09 19:50:00,53.1,48.4,30.41,West,259,0.0,0.0,84,0.00,,---,0.00,VWS V14.01,2013-01-10 00:50:00,
2013-01-09 19:54:00,52.9,48.2,30.41,West,259,0.0,0.0,84,0.00,,---,0.00,VWS V14.01,2013-01-10 00:54:00,
2013-01-09 19:55:00,52.9,48.2,30.41,West,259,0.0,0.0,84,0.00,,---,0.00,VWS V14.01,2013-01-10 00:55:00,
2013-01-09 20:00:00,52.7,48.3,30.41,West,260,0.0,0.0,85,0.00,,---,0.00,VWS V14.01,2013-01-10 01:00:00,
2013-01-09 20:05:00,52.5,48.4,30.41,West,259,0.0,0.0,86,0.00,,---,0.00,VWS V14.01,2013-01-10 01:05:00,
2013-01-09 20:09:00,52.4,48.7,30.41,West,260,0.0,0.0,87,0.00,,---,0.00,VWS V14.01,2013-01-10 01:09:00,
2013-01-09 20:10:00,52.4,48.7,30.41,West,260,0.0,0.0,87,0.00,,---,0.00,VWS V14.01,2013-01-10 01:10:00,
2013-01-09 20:14:00,52.3,48.2,30.41,West,259,0.0,0.0,86,0.00,,---,0.00,VWS V14.01,2013-01-10 01:14:00,
2013-01-09 20:15:00,52.3,48.2,30.41,West,259,0.0,0.0,86,0.00,,---,0.00,VWS V14.01,2013-01-10 01:15:00,
2013-01-09 20:19:00,52.2,48.5,30.41,West,260,0.0,0.0,87,0.00,,---,0.00,VWS V14.01,2013-01-10 01:19:00,
2013-01-09 20:20:00,52.2,48.5,30.41,West,260,0.0,0.0,87,0.00,,---,0.00,VWS V14.01,2013-01-10 01:20:00,
2013-01-09 20:25:00,52.1,48.4,30.41,West,260,0.0,0.0,87,0.00,,---,0.00,VWS V14.01,2013-01-10 01:25:00,
2013-01-09 20:30:00,51.9,48.2,30.41,West,260,0.0,0.0,87,0.00,,---,0.00,VWS V14.01,2013-01-10 01:30:00,
2013-01-09 20:35:00,51.8,48.4,30.42,West,259,0.0,0.0,88,0.00,,---,0.00,VWS V14.01,2013-01-10 01:35:00,
2013-01-09 20:40:00,51.5,47.8,30.42,West,260,0.0,0.0,87,0.00,,---,0.00,VWS V14.01,2013-01-10 01:40:00,
2013-01-09 20:44:00,51.3,47.6,30.42,West,259,0.0,0.0,87,0.00,,---,0.00,VWS V14.01,2013-01-10 01:44:00,
2013-01-09 20:45:00,51.3,47.6,30.42,West,259,0.0,0.0,87,0.00,,---,0.00,VWS V14.01,2013-01-10 01:45:00,
2013-01-09 20:49:00,51.0,47.6,30.42,West,260,0.0,0.0,88,0.00,,---,0.00,VWS V14.01,2013-01-10 01:49:00,
2013-01-09 20:50:00,51.0,47.6,30.42,West,260,0.0,0.0,88,0.00,,---,0.00,VWS V14.01,2013-01-10 01:50:00,
2013-01-09 20:54:00,50.7,47.6,30.43,West,260,0.0,0.0,89,0.00,,---,0.00,VWS V14.01,2013-01-10 01:54:00,
2013-01-09 20:55:00,50.7,47.6,30.43,West,260,0.0,0.0,89,0.00,,---,0.00,VWS V14.01,2013-01-10 01:55:00,
2013-01-09 20:59:00,50.5,47.4,30.43,West,259,0.0,0.0,89,0.00,,---,0.00,VWS V14.01,2013-01-10 01:59:00,
2013-01-09 21:00:00,50.5,47.4,30.43,West,259,0.0,0.0,89,0.00,,---,0.00,VWS V14.01,2013-01-10 02:00:00,
2013-01-09 21:04:00,50.3,47.2,30.42,West,259,0.0,0.0,89,0.00,,---,0.00,VWS V14.01,2013-01-10 02:04:00,
2013-01-09 21:05:00,50.3,47.2,30.42,West,259,0.0,0.0,89,0.00,,---,0.00,VWS V14.01,2013-01-10 02:05:00,
2013-01-09 21:09:00,50.1,47.3,30.42,West,260,0.0,0.0,90,0.00,,---,0.00,VWS V14.01,2013-01-10 02:09:00,
2013-01-09 21:10:00,50.1,47.3,30.42,West,260,0.0,0.0,90,0.00,,---,0.00,VWS V14.01,2013-01-10 02:10:00,
2013-01-09 21:14:00,50.0,47.2,30.42,West,260,0.0,0.0,90,0.00,,---,0.00,VWS V14.01,2013-01-10 02:14:00,
2013-01-09 21:15:00,50.0,47.2,30.42,West,260,0.0,0.0,90,0.00,,---,0.00,VWS V14.01,2013-01-10 02:15:00,
2013-01-09 21:19:00,49.7,46.9,30.43,West,259,0.0,0.0,90,0.00,,---,0.00,VWS V14.01,2013-01-10 02:19:00,
2013-01-09 21:20:00,49.7,46.9,30.43,West,259,0.0,0.0,90,0.00,,---,0.00,VWS V14.01,2013-01-10 02:20:00,
2013-01-09 21:24:00,49.4,46.6,30.43,West,259,0.0,0.0,90,0.00,,---,0.00,VWS V14.01,2013-01-10 02:24:00,
2013-01-09 21:25:00,49.4,46.6,30.43,West,259,0.0,0.0,90,0.00,,---,0.00,VWS V14.01,2013-01-10 02:25:00,
2013-01-09 21:30:00,49.1,46.6,30.43,West,260,1.0,1.0,91,0.00,,---,0.00,VWS V14.01,2013-01-10 02:30:00,
2013-01-09 21:35:00,48.8,46.0,30.43,West,260,0.0,1.0,90,0.00,,---,0.00,VWS V14.01,2013-01-10 02:35:00,
2013-01-09 21:39:00,48.5,45.7,30.43,West,260,0.0,0.0,90,0.00,,---,0.00,VWS V14.01,2013-01-10 02:39:00,
2013-01-09 21:40:00,48.5,45.7,30.43,West,260,0.0,0.0,90,0.00,,---,0.00,VWS V14.01,2013-01-10 02:40:00,
2013-01-09 21:44:00,48.3,45.8,30.43,West,259,0.0,0.0,91,0.00,,---,0.00,VWS V14.01,2013-01-10 02:44:00,
2013-01-09 21:45:00,48.3,45.8,30.43,West,259,0.0,0.0,91,0.00,,---,0.00,VWS V14.01,2013-01-10 02:45:00,
2013-01-09 21:49:00,48.2,45.7,30.43,West,260,0.0,0.0,91,0.00,,---,0.00,VWS V14.01,2013-01-10 02:49:00,
2013-01-09 21:50:00,48.2,45.7,30.43,West,260,0.0,0.0,91,0.00,,---,0.00,VWS V14.01,2013-01-10 02:50:00,
2013-01-09 21:54:00,48.0,45.5,30.43,West,260,0.0,0.0,91,0.00,,---,0.00,VWS V14.01,2013-01-10 02:54:00,
2013-01-09 21:55:00,48.0,45.5,30.43,West,260,0.0,0.0,91,0.00,,---,0.00,VWS V14.01,2013-01-10 02:55:00,
2013-01-09 21:59:00,47.9,45.4,30.43,West,260,0.0,0.0,91,0.00,,---,0.00,VWS V14.01,2013-01-10 02:59:00,
2013-01-09 22:00:00,47.9,45.4,30.43,West,260,0.0,0.0,91,0.00,,---,0.00,VWS V14.01,2013-01-10 03:00:00,
2013-01-09 22:04:00,47.7,45.2,30.43,West,259,0.0,0.0,91,0.00,,---,0.00,VWS V14.01,2013-01-10 03:04:00,
2013-01-09 22:05:00,47.7,45.2,30.43,West,259,0.0,0.0,91,0.00,,---,0.00,VWS V14.01,2013-01-10 03:05:00,
2013-01-09 22:09:00,47.5,45.0,30.43,West,260,0.0,0.0,91,0.00,,---,0.00,VWS V14.01,2013-01-10 03:09:00,
2013-01-09 22:10:00,47.5,45.0,30.43,West,260,0.0,0.0,91,0.00,,---,0.00,VWS V14.01,2013-01-10 03:10:00,
2013-01-09 22:14:00,47.5,45.3,30.43,West,260,0.0,0.0,92,0.00,,---,0.00,VWS V14.01,2013-01-10 03:14:00,
2013-01-09 22:15:00,47.5,45.3,30.43,West,260,0.0,0.0,92,0.00,,---,0.00,VWS V14.01,2013-01-10 03:15:00,
2013-01-09 22:19:00,47.4,45.2,30.43,West,260,0.0,1.0,92,0.00,,---,0.00,VWS V14.01,2013-01-10 03:19:00,
2013-01-09 22:20:00,47.4,45.2,30.43,West,260,0.0,1.0,92,0.00,,---,0.00,VWS V14.01,2013-01-10 03:20:00,
2013-01-09 22:25:00,47.4,45.5,30.44,West,259,0.0,1.0,93,0.00,,---,0.00,VWS V14.01,2013-01-10 03:25:00,
2013-01-09 22:30:00,47.3,45.1,30.44,West,259,0.0,0.0,92,0.00,,---,0.00,VWS V14.01,2013-01-10 03:30:00,
2013-01-09 22:35:00,47.2,45.0,30.44,West,260,0.0,0.0,92,0.00,,---,0.00,VWS V14.01,2013-01-10 03:35:00,
2013-01-09 22:39:00,47.1,44.9,30.43,West,260,0.0,1.0,92,0.00,,---,0.00,VWS V14.01,2013-01-10 03:39:00,
2013-01-09 22:40:00,47.1,44.9,30.43,West,260,0.0,1.0,92,0.00,,---,0.00,VWS V14.01,2013-01-10 03:40:00,
2013-01-09 22:45:00,47.1,45.2,30.44,West,260,0.0,0.0,93,0.00,,---,0.00,VWS V14.01,2013-01-10 03:45:00,
2013-01-09 22:50:00,46.9,44.7,30.44,West,260,0.0,0.0,92,0.00,,---,0.00,VWS V14.01,2013-01-10 03:50:00,
2013-01-09 22:54:00,46.7,44.5,30.44,West,260,0.0,0.0,92,0.00,,---,0.00,VWS V14.01,2013-01-10 03:54:00,
2013-01-09 22:55:00,46.7,44.5,30.44,West,260,0.0,0.0,92,0.00,,---,0.00,VWS V14.01,2013-01-10 03:55:00,
2013-01-09 23:00:00,46.5,44.3,30.44,West,260,0.0,0.0,92,0.00,,---,0.00,VWS V14.01,2013-01-10 04:00:00,
2013-01-09 23:05:00,46.5,44.6,30.45,West,260,0.0,0.0,93,0.00,,---,0.00,VWS V14.01,2013-01-10 04:05:00,
2013-01-09 23:09:00,46.5,44.6,30.45,West,259,0.0,0.0,93,0.00,,---,0.00,VWS V14.01,2013-01-10 04:09:00,
2013-01-09 23:10:00,46.5,44.6,30.45,West,259,0.0,0.0,93,0.00,,---,0.00,VWS V14.01,2013-01-10 04:10:00,
2013-01-09 23:14:00,46.4,44.5,30.45,West,259,0.0,0.0,93,0.00,,---,0.00,VWS V14.01,2013-01-10 04:14:00,
2013-01-09 23:15:00,46.4,44.5,30.45,West,259,0.0,0.0,93,0.00,,---,0.00,VWS V14.01,2013-01-10 04:15:00,
2013-01-09 23:19:00,46.4,44.5,30.45,West,260,0.0,0.0,93,0.00,,---,0.00,VWS V14.01,2013-01-10 04:19:00,
2013-01-09 23:20:00,46.4,44.5,30.45,West,260,0.0,0.0,93,0.00,,---,0.00,VWS V14.01,2013-01-10 04:20:00,
2013-01-09 23:25:00,46.4,44.5,30.45,West,260,0.0,0.0,93,0.00,,---,0.00,VWS V14.01,2013-01-10 04:25:00,
2013-01-09 23:30:00,46.2,44.3,30.45,West,260,1.0,1.0,93,0.00,,---,0.00,VWS V14.01,2013-01-10 04:30:00,
2013-01-09 23:35:00,46.2,44.3,30.45,West,260,0.0,1.0,93,0.00,,---,0.00,VWS V14.01,2013-01-10 04:35:00,
2013-01-09 23:40:00,46.0,44.1,30.45,West,259,0.0,0.0,93,0.00,,---,0.00,VWS V14.01,2013-01-10 04:40:00,
2013-01-09 23:44:00,45.9,43.7,30.45,West,259,0.0,0.0,92,0.00,,---,0.00,VWS V14.01,2013-01-10 04:44:00,
2013-01-09 23:45:00,45.9,43.7,30.45,West,259,0.0,0.0,92,0.00,,---,0.00,VWS V14.01,2013-01-10 04:45:00,
2013-01-09 23:49:00,45.9,44.0,30.45,West,259,0.0,0.0,93,0.00,,---,0.00,VWS V14.01,2013-01-10 04:49:00,
2013-01-09 23:50:00,45.9,44.0,30.45,West,259,0.0,0.0,93,0.00,,---,0.00,VWS V14.01,2013-01-10 04:50:00,
2013-01-09 23:54:00,45.9,44.0,30.45,West,260,0.0,0.0,93,0.00,,---,0.00,VWS V14.01,2013-01-10 04:54:00,
2013-01-09 23:55:00,45.9,44.0,30.45,West,260,0.0,0.0,93,0.00,,---,0.00,VWS V14.01,2013-01-10 04:55:00,